Temperature
9 10 10 9 9 9 8 8 8 9 10 10 9 9 9 9 8 7 7 7 6 6 6 6 6 5 5 5 5 5 5 5 5 5 5 5 5 5 5 5 5 5 5 5
7 9 9 8 8 9 8 9 9 9 9 10 10 9 9 8 8 7 7 6 6 6 5 5 5 5 5 5 5 5 5 5 5 4 4 4 4 4 4 4 4 4 4 4
7 8 8 7 8 8 8 8 9 8 9 9 8 8 8 8 7 7 6 6 5 5 5 5 5 5 5 5 5 5 5 4 4 4 4 4 4 4 4 4 4 4 4 4
6 7 6 9 9 9 9 9 9 9 9 9 8 8 8 7 7 6 6 5 5 5 4 4 4 4 4 4 4 4 4 4 4 4 4 4 4 4 4 4 4 4 3 3
5 6 7 9 8 8 8 8 8 8 8 8 8 7 7 7 6 6 5 5 5 4 4 4 4 4 4 4 4 4 4 4 4 4 3 3 4 4 4 3 3 3 3 3
5 6 7 9 8 8 8 6 7 8 7 7 6 5 5 6 6 5 5 5 4 4 4 4 4 4 4 4 3 3 3 3 3 3 3 3 3 3 3 3 3 3 3 2
5 5 7 7 7 7 6 6 7 7 7 6 6 5 6 6 5 5 4 4 4 4 4 4 3 3 3 3 3 3 3 3 3 3 3 3 3 3 2 2 2 2 2 2
5 5 6 6 6 5 6 7 7 7 7 6 6 5 5 5 4 4 4 4 4 3 3 3 3 3 3 3 3 3 3 3 2 2 2 2 2 2 2 2 2 2 2 2
5 6 6 6 6 7 7 6 6 6 6 5 5 5 4 4 4 4 4 3 3 3 3 3 3 2 2 2 2 2 2 2 2 2 2 2 2 2 1 1 1 1 1 1
5 6 6 6 6 6 6 6 5 5 5 5 4 4 4 3 3 3 3 3 3 3 3 2 2 2 2 2 2 2 2 2 2 1 1 1 1 1 1 1 0 0 0 0
4 5 6 6 5 5 5 5 5 4 4 4 4 3 3 3 3 3 2 2 2 2 2 2 2 2 2 2 1 1 1 1 1 1 1 1 1 1 0 0 -0 -0 -0 -0
4 5 4 5 5 5 4 4 4 4 3 3 3 3 2 2 2 2 2 2 2 2 2 2 1 1 1 1 1 1 1 1 1 0 0 0 -0 0 0 -0 -0 -1 -1 -1
5 4 4 4 4 4 4 4 3 3 3 3 2 2 2 2 2 1 1 1 1 1 1 1 1 1 1 1 1 0 0 0 0 -0 -0 -1 -1 -1 -1 -1 -1 -1 -1 -1
4 3 3 3 3 3 3 3 2 2 2 2 2 1 1 1 1 1 1 1 1 1 1 1 1 1 0 0 0 0 -0 -0 -0 -1 -1 -1 -1 -1 -1 -1 -1 -1 -1 -2
2 2 2 2 2 2 2 2 2 1 1 1 1 1 0 0 0 1 0 0 0 0 0 0 -0 -0 -0 -0 -0 -0 -1 -1 -1 -1 -1 -2 -2 -2 -2 -2 -2 -2 -2 -2
1 1 1 1 1 1 1 1 1 0 0 0 -0 -0 -0 -0 -0 -0 -0 -0 -1 -0 -0 -1 -1 -1 -1 -1 -1 -1 -1 -1 -2 -2 -2 -2 -2 -2 -2 -2 -2 -3 -3 -3
0 0 0 0 0 0 -0 -0 -0 -1 -1 -1 -1 -1 -1 -1 -1 -1 -1 -1 -1 -1 -1 -1 -1 -1 -2 -2 -2 -2 -2 -2 -2 -2 -3 -3 -3 -3 -3 -3 -3 -3 -3 -3
-0 -0 -0 -0 -0 -1 -1 -1 -1 -1 -1 -1 -1 -1 -2 -2 -2 -1 -1 -1 -1 -1 -2 -2 -2 -2 -2 -2 -2 -2 -2 -3 -3 -3 -3 -3 -3 -3 -3 -3 -4 -4 -4 -4
-1 -1 -1 -1 -1 -1 -1 -1 -1 -2 -2 -2 -2 -2 -2 -2 -2 -2 -2 -2 -2 -2 -2 -2 -3 -3 -3 -3 -3 -3 -3 -3 -3 -3 -4 -4 -4 -4 -4 -4 -4 -4 -4 -4
-2 -2 -2 -2 -2 -2 -2 -2 -2 -2 -2 -3 -3 -3 -3 -3 -3 -3 -3 -3 -3 -3 -3 -3 -3 -3 -3 -3 -4 -4 -4 -4 -4 -4 -4 -4 -4 -4 -4 -4 -5 -5 -5 -5
-3 -3 -3 -3 -3 -2 -3 -3 -3 -3 -3 -3 -3 -3 -4 -4 -4 -4 -4 -4 -4 -4 -4 -4 -4 -4 -4 -4 -4 -4 -4 -4 -4 -5 -5 -5 -5 -5 -5 -5 -5 -5 -5 -5
-3 -3 -3 -3 -3 -3 -3 -3 -4 -4 -4 -4 -4 -4 -4 -4 -4 -4 -4 -4 -5 -5 -5 -5 -5 -5 -5 -5 -5 -5 -5 -5 -5 -5 -5 -5 -5 -5 -5 -6 -6 -6 -6 -6
-4 -4 -4 -4 -4 -4 -4 -4 -4 -4 -4 -4 -5 -5 -5 -5 -5 -5 -5 -5 -5 -5 -5 -5 -5 -5 -5 -5 -5 -5 -5 -5 -6 -6 -6 -6 -6 -6 -6 -6 -6 -6 -6 -6
-5 -5 -5 -5 -5 -5 -5 -5 -5 -5 -5 -5 -5 -5 -5 -5 -5 -5 -6 -6 -6 -6 -6 -6 -6 -6 -6 -6 -6 -6 -6 -6 -6 -6 -6 -6 -6 -6 -6 -6 -6 -6 -7 -7
-5 -5 -5 -5 -5 -5 -5 -6 -5 -5 -5 -6 -6 -6 -6 -6 -6 -6 -6 -6 -6 -6 -6 -6 -6 -6 -6 -6 -6 -6 -7 -7 -7 -7 -7 -7 -7 -7 -7 -7 -7 -7 -7 -7
-6 -6 -6 -6 -6 -6 -6 -6 -6 -6 -6 -6 -6 -6 -7 -7 -7 -7 -7 -7 -7 -7 -7 -7 -7 -7 -7 -7 -7 -7 -7 -7 -7 -7 -7 -7 -7 -7 -7 -7 -7 -7 -7 -7
-6 -6 -7 -7 -7 -7 -7 -7 -7 -7 -7 -7 -7 -7 -7 -7 -7 -7 -7 -7 -7 -7 -7 -7 -7 -7 -7 -7 -7 -7 -8 -8 -8 -8 -8 -8 -8 -8 -8 -8 -8 -8 -8 -8
Wind_Speed
8 7 5 7 8 8 9 9 7 7 7 6 3 1 0 1 1 2 2 3 3 3 3 2 2 1 1 1 1 1 2 2 3 2 2 2 2 2 2 2 3 3 3 4
7 7 7 10 10 11 11 11 12 12 11 4 1 1 1 1 1 2 2 3 3 4 4 3 2 2 2 2 2 1 2 2 2 2 2 2 2 2 2 2 3 3 4 4
5 4 5 9 9 11 8 7 8 10 8 1 1 1 1 0 1 1 2 3 3 3 3 3 3 2 2 2 2 1 2 2 2 3 3 3 3 3 3 3 3 3 4 4
3 3 9 6 2 4 6 7 7 5 3 1 1 1 1 1 0 1 2 3 3 3 3 3 3 3 2 2 1 2 2 2 2 2 3 3 3 4 4 3 4 4 4 4
3 5 9 5 3 4 5 5 5 5 3 0 2 2 1 1 2 2 2 2 2 2 3 3 3 3 2 2 1 2 3 3 2 2 3 3 4 4 3 3 4 4 4 4
5 6 7 3 3 2 3 4 2 3 2 1 2 1 2 1 3 3 3 3 3 3 3 3 3 3 3 3 2 3 3 3 3 2 3 4 4 3 3 3 4 4 4 4
9 7 7 1 3 5 4 4 2 2 2 2 2 2 0 2 2 2 3 3 3 3 3 3 3 3 3 3 3 3 3 3 3 3 3 3 3 3 3 3 3 3 4 4
7 8 8 3 5 5 3 1 2 2 2 2 1 1 1 1 2 2 2 3 3 3 4 3 3 3 3 3 3 3 3 3 3 3 3 2 2 3 3 3 3 4 4 4
7 6 1 5 4 2 2 2 1 1 1 2 1 1 1 1 2 2 2 2 3 3 4 4 3 3 4 4 3 3 3 3 3 3 2 2 2 3 2 2 3 3 3 4
4 4 2 3 2 1 1 1 1 1 1 1 1 1 1 2 2 2 2 2 2 3 4 4 4 4 4 4 3 3 3 4 3 3 3 2 2 2 2 3 3 3 4 4
5 4 2 2 1 1 0 1 1 1 0 1 2 2 2 2 2 2 3 2 2 3 4 5 4 4 4 4 3 3 4 3 3 3 3 3 2 2 3 3 4 4 4 4
6 4 3 4 2 1 1 1 1 1 1 1 2 2 2 3 3 3 3 3 3 4 4 5 4 5 4 4 3 3 3 3 3 2 3 3 3 3 4 5 6 6 6 5
3 2 2 3 1 1 1 1 1 1 1 1 1 1 2 3 3 3 3 3 4 4 4 5 5 5 5 4 3 3 3 4 3 3 3 3 3 3 4 5 5 6 6 6
1 1 2 3 2 1 1 0 0 1 1 1 1 1 2 3 3 4 4 4 4 4 4 5 5 6 5 4 4 3 4 4 4 3 3 3 3 3 4 4 5 4 5 6
2 2 3 2 1 0 0 1 0 1 1 1 1 1 2 3 4 5 4 3 3 4 4 4 5 5 5 4 4 4 4 4 3 3 3 3 3 3 4 4 4 4 3 4
2 2 2 2 2 1 0 0 1 2 1 2 2 3 3 4 4 5 4 3 4 5 5 4 5 5 4 4 5 4 4 6 5 4 4 4 3 3 4 4 4 4 4 3
2 3 3 3 3 3 2 2 2 2 2 2 3 3 3 4 4 5 4 4 4 5 4 5 5 5 4 4 4 4 4 5 5 4 4 4 4 4 4 4 4 4 4 4
3 4 4 4 3 3 3 3 3 3 3 3 2 3 3 4 5 5 5 4 4 5 4 4 4 5 5 4 4 4 4 4 4 4 4 4 4 4 4 4 5 5 4 4
2 2 1 1 2 2 2 2 2 2 2 2 2 3 4 4 4 5 5 4 5 6 5 4 5 5 4 5 5 4 4 4 4 4 4 5 5 4 4 4 4 4 4 3
0 1 1 1 1 1 1 1 2 2 2 2 3 3 4 4 4 4 4 5 4 4 4 4 4 4 4 5 6 4 4 4 4 4 4 4 4 4 4 4 4 4 4 4
1 1 1 1 1 1 1 1 1 2 3 3 3 4 4 5 4 4 4 5 4 3 4 5 4 4 4 5 6 4 4 4 4 4 4 4 4 4 4 4 4 4 4 3
1 1 1 1 1 2 2 2 1 2 3 3 3 3 4 4 4 4 4 4 4 5 4 3 3 5 6 7 4 4 4 4 4 4 4 4 4 4 4 4 4 4 3 3
2 2 2 2 2 2 2 2 2 2 2 3 3 4 4 4 4 4 5 3 3 6 5 4 6 9 10 6 4 4 4 4 4 4 4 4 4 4 4 4 4 3 3 3
3 3 3 2 2 2 3 3 3 2 2 3 3 4 4 4 4 3 3 5 7 8 5 6 9 10 9 4 4 4 4 4 4 4 4 4 4 3 3 3 3 3 3 3
3 3 3 3 3 2 2 3 3 3 3 3 4 4 4 3 3 4 4 5 7 8 5 7 10 10 6 4 4 4 4 4 4 4 3 3 3 3 3 3 3 3 3 3
3 3 3 3 2 2 3 3 3 3 3 4 4 4 4 3 4 4 4 5 6 7 6 4 5 6 4 4 4 4 4 5 4 4 3 3 3 3 3 3 3 2 2 2
3 3 3 3 3 3 3 3 3 4 4 4 5 5 4 4 4 5 5 5 5 5 4 4 4 4 4 4 4 4 4 4 4 3 3 2 2 2 2 3 2 2 2 2
Wind_Direction
268 280 260 251 246 227 221 226 240 264 272 282 287 289 316 30 26 15 10 8 0 349 348 1 357 342 328 297 261 216 206 218 226 226 219 236 250 247 237 232 235 230 229 232
270 255 260 263 248 236 234 237 247 264 274 276 352 26 37 17 18 347 350 354 354 351 351 347 339 331 325 308 297 272 238 231 228 224 226 232 240 247 243 243 243 237 231 229
259 254 286 262 237 222 220 221 224 243 254 242 294 251 244 236 314 329 350 350 350 345 341 334 327 312 295 286 289 267 253 240 225 221 227 228 235 237 235 232 236 240 239 234
254 270 245 239 171 190 214 232 221 240 249 223 215 227 172 111 31 359 353 345 344 341 337 333 330 330 318 310 295 281 275 259 244 233 237 235 233 238 239 236 233 236 239 240
216 248 265 245 211 176 193 245 215 224 242 284 68 18 287 90 62 30 9 357 348 340 333 333 337 337 335 324 317 303 290 275 268 248 245 243 243 246 247 243 245 243 239 240
221 235 245 240 143 127 126 250 200 182 198 129 90 263 262 55 53 30 19 10 360 352 349 346 339 340 332 317 313 300 294 289 283 266 253 250 247 251 255 248 247 250 253 248
226 239 257 216 132 120 176 242 150 147 168 160 198 226 210 48 38 23 11 4 3 353 342 333 332 334 319 313 301 298 302 297 285 270 260 256 255 254 253 253 251 251 258 260
206 225 245 143 137 175 210 94 113 133 157 161 162 76 60 37 8 358 355 357 360 349 336 333 335 329 314 308 307 316 312 299 287 276 274 272 256 255 247 244 247 252 259 268
206 217 223 156 165 147 110 131 131 129 122 137 164 247 301 316 320 325 333 343 347 340 330 326 328 328 313 309 317 320 311 301 296 291 279 265 255 257 260 248 247 254 255 263
256 250 202 189 141 86 98 116 94 98 104 135 221 252 272 287 298 309 320 327 330 328 320 316 323 325 310 310 317 311 300 296 295 292 289 282 274 258 253 253 250 252 256 262
258 276 296 232 219 214 184 112 107 107 178 216 220 249 258 267 277 288 302 308 308 302 300 304 317 317 313 313 313 304 297 293 293 290 285 286 280 268 261 258 248 253 254 251
242 236 231 257 255 256 233 235 208 197 274 267 226 251 271 274 274 277 283 292 297 297 298 305 313 310 309 311 303 292 293 292 287 286 287 282 285 299 286 272 281 276 270 267
256 296 292 303 317 344 270 261 247 233 242 259 261 254 271 282 289 287 288 290 290 292 296 304 308 307 305 307 302 290 286 288 286 281 281 282 283 285 296 305 292 286 283 284
298 326 294 292 288 306 301 307 325 311 283 253 281 301 291 285 285 284 283 283 287 291 294 298 302 302 306 311 307 294 288 285 282 277 273 273 270 271 272 281 296 300 290 286
288 276 256 268 270 319 47 63 8 293 307 328 335 306 288 283 284 288 292 293 294 292 291 294 296 300 312 314 305 294 290 285 278 277 275 272 271 271 270 270 276 286 296 299
261 281 267 254 246 274 10 351 268 270 289 301 305 299 295 293 291 291 291 286 284 287 290 292 293 298 305 304 298 293 285 280 283 280 279 277 273 271 271 271 274 276 277 282
217 238 242 247 245 250 238 239 249 261 269 275 287 301 307 306 298 294 294 292 284 283 286 288 291 300 303 300 296 290 289 289 288 284 275 271 270 268 268 271 273 275 273 274
238 241 234 231 234 242 249 246 251 257 265 280 294 300 294 289 288 293 298 303 302 298 293 289 293 302 300 298 296 288 285 284 280 276 277 275 274 270 269 270 270 273 278 279
243 243 237 243 246 241 249 264 278 286 288 287 288 286 288 288 291 297 304 303 298 297 301 305 309 309 302 300 302 290 285 283 286 284 281 282 283 271 266 264 266 268 271 273
50 66 66 16 356 332 301 310 314 307 299 293 294 296 299 300 301 300 300 291 283 281 294 310 314 309 305 305 308 294 285 280 280 283 283 279 276 274 271 270 269 268 269 271
37 47 53 39 8 360 337 306 297 300 305 302 290 289 294 299 299 296 294 295 296 300 308 312 313 304 303 304 306 295 291 288 281 276 277 280 280 277 275 272 271 270 270 273
24 48 41 30 25 358 347 341 327 314 314 313 305 299 301 304 306 301 285 278 291 309 315 306 304 304 309 311 303 296 292 289 284 280 277 277 276 275 275 274 272 271 269 269
29 33 31 23 13 353 347 348 339 324 312 306 302 303 302 301 300 299 301 302 310 315 318 303 309 313 315 316 307 300 298 296 293 290 287 281 276 276 276 276 273 272 270 272
33 30 23 15 21 19 356 344 343 335 324 316 313 311 309 311 313 305 298 313 322 320 317 312 318 320 322 324 314 306 301 298 297 295 292 286 282 278 275 274 275 278 277 276
26 22 16 14 11 359 347 347 347 343 341 337 333 330 325 314 307 316 323 323 323 325 321 319 321 324 328 321 317 311 306 300 297 296 289 286 284 282 280 280 280 278 275 273
18 16 12 6 357 348 346 347 344 340 341 336 334 336 336 335 329 326 324 321 320 321 322 318 319 322 323 319 317 314 311 310 310 306 297 291 285 284 286 286 285 280 276 275
14 12 11 7 4 2 359 352 345 338 336 331 326 330 334 333 330 329 326 325 324 323 320 320 321 320 317 316 315 314 314 313 310 304 300 295 291 286 281 279 280 282 282 278
Height
1496 1494 1494 1495 1495 1496 1498 1498 1499 1490 1486 1484 1484 1484 1484 1484 1485 1484 1484 1483 1482 1481 1480 1479 1478 1478 1477 1476 1476 1476 1475 1475 1475 1476 1476 1476 1476 1475 1476 1476 1476 1476 1476 1476
1499 1493 1493 1493 1490 1490 1490 1490 1489 1487 1484 1480 1481 1482 1483 1483 1483 1483 1482 1482 1481 1479 1478 1477 1476 1475 1474 1474 1473 1473 1473 1472 1473 1473 1472 1472 1472 1472 1472 1472 1472 1472 1472 1472
1499 1492 1492 1492 1481 1482 1483 1481 1483 1484 1481 1479 1480 1480 1481 1482 1482 1481 1481 1480 1479 1478 1477 1475 1474 1473 1472 1471 1471 1470 1470 1469 1469 1469 1469 1469 1469 1468 1468 1468 1468 1468 1467 1467
1499 1497 1499 1478 1472 1472 1475 1475 1476 1476 1476 1477 1478 1478 1479 1480 1480 1480 1479 1478 1477 1476 1475 1473 1472 1471 1470 1469 1468 1467 1467 1466 1466 1466 1466 1465 1465 1465 1464 1464 1464 1463 1463 1463
1498 1495 1483 1474 1471 1471 1474 1474 1472 1474 1475 1475 1476 1477 1478 1478 1478 1478 1477 1477 1475 1474 1473 1471 1470 1469 1468 1467 1466 1465 1464 1464 1463 1463 1462 1462 1461 1461 1460 1460 1459 1459 1459 1458
1493 1491 1482 1470 1469 1468 1472 1475 1471 1471 1473 1474 1475 1479 1477 1476 1476 1475 1475 1474 1473 1472 1470 1469 1468 1466 1465 1464 1463 1462 1462 1461 1461 1460 1459 1458 1458 1457 1457 1456 1455 1455 1454 1454
1489 1486 1475 1469 1468 1470 1478 1474 1469 1469 1471 1473 1474 1475 1475 1474 1474 1474 1473 1472 1471 1469 1468 1466 1465 1464 1463 1462 1461 1460 1459 1458 1458 1457 1456 1455 1454 1454 1453 1452 1451 1451 1450 1450
1483 1483 1477 1468 1469 1472 1471 1468 1468 1468 1470 1471 1472 1472 1472 1472 1472 1471 1470 1469 1468 1467 1465 1464 1463 1462 1460 1459 1458 1457 1456 1455 1454 1453 1452 1452 1451 1450 1449 1448 1447 1446 1446 1445
1472 1471 1465 1465 1465 1466 1466 1467 1467 1467 1468 1469 1469 1470 1470 1470 1469 1469 1468 1467 1466 1465 1463 1462 1461 1459 1458 1456 1455 1454 1453 1452 1450 1450 1449 1448 1447 1446 1445 1444 1443 1442 1441 1441
1466 1463 1462 1463 1463 1464 1464 1465 1465 1466 1466 1467 1467 1467 1467 1467 1467 1466 1465 1464 1463 1462 1460 1459 1458 1457 1455 1453 1452 1451 1449 1448 1447 1446 1445 1444 1443 1442 1441 1440 1439 1438 1438 1437
1464 1462 1461 1461 1461 1462 1462 1463 1463 1463 1464 1464 1464 1464 1464 1464 1463 1463 1462 1462 1461 1459 1458 1456 1455 1454 1452 1451 1449 1447 1446 1445 1444 1443 1442 1441 1440 1439 1438 1437 1436 1435 1434 1433
1461 1459 1460 1459 1459 1460 1460 1460 1460 1460 1460 1461 1461 1461 1461 1461 1460 1460 1459 1458 1457 1456 1455 1454 1452 1451 1449 1448 1446 1444 1443 1442 1440 1439 1438 1437 1436 1435 1434 1433 1432 1431 1430 1430
1455 1455 1456 1456 1457 1457 1457 1457 1457 1457 1457 1458 1458 1458 1458 1457 1457 1456 1456 1455 1454 1453 1452 1450 1449 1447 1446 1444 1443 1441 1440 1438 1437 1436 1435 1434 1432 1431 1430 1429 1428 1427 1426 1425
1452 1453 1453 1453 1454 1454 1454 1454 1454 1454 1454 1454 1454 1454 1454 1454 1453 1453 1452 1451 1450 1449 1448 1447 1445 1444 1442 1441 1439 1438 1436 1435 1433 1432 1431 1430 1429 1428 1427 1425 1423 1422 1421 1420
1450 1450 1450 1450 1450 1450 1450 1450 1451 1451 1451 1451 1451 1451 1450 1450 1449 1449 1448 1447 1446 1445 1444 1442 1441 1439 1438 1437 1435 1434 1432 1431 1429 1428 1427 1426 1425 1424 1423 1421 1420 1418 1417 1416
1446 1447 1447 1447 1447 1447 1447 1447 1447 1447 1447 1447 1447 1447 1447 1446 1445 1444 1444 1443 1442 1440 1439 1438 1436 1435 1434 1432 1431 1429 1428 1426 1425 1424 1422 1421 1420 1419 1418 1417 1416 1414 1413 1412
1442 1442 1443 1443 1443 1443 1444 1444 1444 1444 1444 1444 1443 1443 1442 1442 1441 1440 1439 1439 1438 1436 1435 1434 1432 1431 1429 1428 1426 1425 1423 1422 1421 1419 1418 1417 1416 1415 1414 1413 1411 1410 1409 1408
1439 1439 1439 1439 1439 1440 1440 1441 1441 1441 1440 1440 1440 1439 1438 1437 1436 1435 1435 1434 1433 1432 1431 1429 1428 1426 1425 1423 1422 1420 1419 1417 1416 1415 1413 1412 1411 1410 1409 1408 1407 1406 1405 1404
1434 1434 1435 1436 1436 1437 1437 1437 1437 1437 1437 1436 1436 1435 1434 1434 1433 1432 1431 1430 1428 1427 1426 1425 1423 1421 1420 1419 1417 1416 1414 1413 1411 1410 1409 1408 1407 1406 1405 1404 1403 1402 1401 1400
1431 1431 1432 1433 1434 1434 1434 1434 1434 1434 1434 1433 1432 1431 1430 1430 1429 1428 1427 1425 1425 1423 1422 1420 1419 1417 1415 1414 1413 1411 1409 1408 1406 1405 1404 1403 1402 1401 1400 1399 1398 1398 1397 1396
1429 1430 1430 1431 1431 1432 1432 1432 1431 1431 1430 1430 1429 1428 1427 1426 1425 1424 1422 1421 1420 1419 1418 1416 1414 1413 1411 1409 1408 1406 1405 1403 1402 1401 1399 1398 1397 1397 1396 1395 1394 1394 1393 1392
1428 1428 1429 1429 1429 1429 1429 1429 1429 1428 1428 1427 1426 1425 1424 1423 1422 1420 1419 1418 1417 1416 1414 1412 1410 1409 1407 1405 1404 1402 1400 1399 1398 1396 1395 1394 1393 1392 1392 1391 1390 1390 1389 1388
1427 1427 1427 1427 1427 1427 1427 1427 1427 1426 1425 1424 1424 1423 1421 1420 1419 1417 1416 1415 1414 1412 1410 1408 1407 1405 1403 1401 1399 1398 1396 1395 1393 1392 1391 1390 1389 1388 1387 1387 1386 1386 1385 1385
1427 1427 1427 1427 1426 1426 1425 1425 1425 1424 1423 1422 1421 1420 1419 1417 1416 1415 1413 1412 1410 1408 1406 1405 1403 1401 1399 1397 1395 1394 1392 1391 1390 1388 1387 1386 1385 1384 1383 1383 1382 1382 1382 1381
1426 1426 1426 1425 1425 1424 1424 1423 1422 1422 1421 1420 1419 1418 1417 1415 1414 1412 1410 1409 1407 1405 1403 1401 1400 1398 1396 1394 1392 1390 1389 1387 1386 1385 1383 1382 1381 1381 1380 1379 1379 1378 1378 1378
1426 1425 1425 1425 1424 1423 1423 1422 1421 1420 1419 1417 1416 1416 1414 1413 1411 1409 1407 1406 1404 1402 1400 1398 1397 1395 1393 1391 1389 1387 1386 1384 1383 1381 1380 1379 1378 1377 1377 1376 1376 1375 1375 1375
1425 1425 1424 1424 1423 1422 1421 1420 1419 1418 1417 1416 1414 1413 1412 1410 1408 1406 1405 1403 1401 1399 1397 1396 1394 1392 1390 1388 1386 1384 1383 1381 1380 1378 1377 1376 1375 1375 1374 1374 1373 1373 1372 1372